Regional Weather Roundup
Issued by NWS

Home | Current Version | Previous Version | Text Only | Print | Product List | Glossary Off
Versions: 1 2 3 4 5 6 7 8 9 10 11 12 13 14 15 16 17 18 19 20 21 22 23 24 25 26 27 28 29 30 31 32 33 34 35 36 37 38 39 40 41 42 43 44 45 46 47 48 49 50

000
ASUS43 KMKX 010500
RWRWI

WISCONSIN REGIONAL WEATHER ROUNDUP
NATIONAL WEATHER SERVICE MILWAUKEE/SULLIVAN WI
1200 AM CDT SAT AUG 01 2015

NOTE: "FAIR" INDICATES FEW OR NO CLOUDS BELOW 12,000 FEET WITH NO
SIGNIFICANT WEATHER AND/OR OBSTRUCTIONS TO VISIBILITY.

WIZ001-002-006>008-014>016-023>028-010600-
NORTHWEST WISCONSIN

CITY           SKY/WX    TMP DP  RH WIND       PRES   REMARKS
SUPERIOR ARPT  CLEAR     62  52  68 W8        29.94S
ASHLAND        PTCLDY    55  53  93 W3        29.93R
HAYWARD        CLEAR     55  50  83 CALM      29.97S
SIREN          CLEAR     61  51  71 W3        29.98S
CUMBERLAND     CLEAR     57  52  82 W6        29.99S
RICE LAKE      PTCLDY    57  54  88 W3        30.00S
CHETEK         MOCLDY    60  55  84 S3        29.99R
LADYSMITH      CLEAR     60  53  77 SW5       29.99R
EAU CLAIRE     NOT AVBL
MENOMONIE      CLEAR     65  54  66 SW6       29.99S
NEW RICHMOND   CLEAR     62  54  76 W5        30.00S
OSCEOLA        CLEAR     61  56  84 CALM      30.02R
$$

WIZ003>005-009-010-017-018-010600-
NORTH CENTRAL WISCONSIN

CITY           SKY/WX    TMP DP  RH WIND       PRES   REMARKS
MANITOWISH WTR MOCLDY    55  55 100 CALM      29.94S
ARBOR VITAE    PTCLDY    57  55  93 CALM      29.94F
WOODRUFF       PTCLDY    57  55  93 CALM      29.94F
RHINELANDER    PTCLDY    54  52  93 W6        29.96S
EAGLE RIVER    PTCLDY    56  56 100 CALM      29.94S FOG
LAND O LAKES   CLEAR     57  54  91 W3        29.94S
PHILLIPS       CLEAR     58  53  81 W3        29.96S
TOMAHAWK         N/A     52  51  97 CALM      29.96S FOG
MEDFORD        CLEAR     61  52  73 W5        29.98S
MERRILL        NOT AVBL
$$

WIZ029-030-035-036-043>047-010600-
CENTRAL WISCONSIN

CITY           SKY/WX    TMP DP  RH WIND       PRES   REMARKS
WAUSAU         CLEAR     63  55  75 S5        29.95S
MOSINEE        CLEAR     59  55  88 CALM      29.98S
MARSHFIELD     CLEAR     61  50  67 W7        29.98S
STEVENS POINT  CLEAR     56  52  86 CALM      29.97F
WAUPACA        CLEAR     62  56  80 CALM      29.96S
WAUTOMA        NOT AVBL
WISC RAPIDS    CLEAR     63  51  65 W6        29.99R
CAMP DOUGLAS   NOT AVBL
$$

WIZ011>013-019>022-031-037>040-048>050-010600-
NORTHEAST WISCONSIN

CITY           SKY/WX    TMP DP  RH WIND       PRES   REMARKS
ANTIGO         PTCLDY    57  56  95 W6        29.96S
SHAWANO        CLOUDY    66  56  69 W3        29.94S
OCONTO         CLEAR     60  55  82 W3        29.91S
STURGEON BAY   CLEAR     64  52  63 W5        29.93F
GREEN BAY      PTCLDY    61  56  83 W7        29.93S
MANITOWOC      NOT AVBL
APPLETON       MOCLDY    63  54  72 W7        29.96S
CLINTONVILLE   PTCLDY    61  54  77 W3        29.94S
OSHKOSH        CLEAR     66  53  63 W3        29.96R
$$

WIZ032>034-041-042-053>061-010600-
SOUTHWEST WISCONSIN

CITY           SKY/WX    TMP DP  RH WIND       PRES   REMARKS
LA CROSSE      PTCLDY    66  57  72 SE3       30.00R
SPARTA         CLEAR     55  52  89 CALM      30.01S
VIROQUA        CLEAR     62  53  72 W7        30.03S
BOSCOBEL       CLEAR     60  57  89 SW3       30.02R
PRAIRIE DU CHI CLEAR     64  56  77 CALM      30.02S
PLATTEVILLE    CLEAR     62  57  82 SW3       30.03S
$$

WIZ056-057-062-063-064-067-068-010600-
SOUTH CENTRAL WISCONSIN

CITY           SKY/WX    TMP DP  RH WIND       PRES   REMARKS
REEDSBURG      CLEAR     61  54  77 CALM      29.99S
BARABOO/DELLS  CLEAR     59  51  74 CALM      30.00S
LONE ROCK      NOT AVBL
MINERAL POINT  CLEAR     63  54  72 W5        30.03S
MADISON        CLEAR     67  51  56 W3        29.99S
MIDDLETON      CLEAR     58  55  89 CALM      30.01S
WATERTOWN      CLEAR     61  55  78 CALM      29.98S
MONROE         CLEAR     66  54  63 W9        30.01S
JANESVILLE     CLEAR     63  52  67 CALM      29.99S
$$

WIZ051-052-058>065-066-070>072-010600-
SOUTHEAST WISCONSIN

CITY           SKY/WX    TMP DP  RH WIND       PRES   REMARKS
MILWAUKEE      CLEAR     71  51  49 W6        29.96S
WAUKESHA       CLEAR     63  50  63 W6        29.99S
MILWAUKEE/TIMM CLEAR     68  48  49 W7        29.97S
RACINE         CLEAR     67  51  56 W5        29.99R
BURLINGTON     CLEAR     63  50  62 W6        29.98S
KENOSHA        CLEAR     61  52  72 W6        29.98S
FOND DU LAC    CLOUDY    64  54  69 SW5       29.97R
SHEBOYGAN      LGT RAIN  68  55  63 W5        29.95S
WEST BEND      FAIR      66  50  55 W3        29.97S
JUNEAU         CLEAR     60  53  77 CALM      29.99S
$$

LSZ147-162-010600-
LAKE SUPERIOR

STATION/POSITION TIME  TEMP    WIND        PRES    WAVE
                       AIR SEA DIR/SP/G            HT/PER
                 (UTC) (F)     (DEG/KT/KT) (MB)    (FT/S)
W MID LAKE BUOY  0350   58 53  260/ 12/ 12 1011.0F   1/ 3
DEVILS ISLAND    0400   64     230/ 11/ 12 1012.4F
PORT WING        0400   69     260/ 10/ 14 1012.9
SAXON HARBOR     0440   60                 1012.2F
$$

LMZ867-665-643>646-010600-
LAKE MICHIGAN

STATION/POSITION TIME  TEMP    WIND        PRES    WAVE
                       AIR SEA DIR/SP/G            HT/PER
                 (UTC) (F)     (DEG/KT/KT) (MB)    (FT/S)
CHAMBERS ISLAND  0400   69     240/  4/ 10 1012.2S
S GREEN BAY BUOY 0300   68 71  280/  8/ 10 1014.3
N MID LAKE BUOY  0350   70 68  280/  8/ 12 1011.0S   1/ 4
NORTHPORT PIER   0400   71     280/  8/ 13 1011.9S
SISTER BAY       0414   70     300/ 16/ 19   N/A
ALGOMA LAKESHORE 0412           CALM  /  3   N/A
KEWAUNEE LAKESHO 0400   66     300/  4/  5 1012.8R
SHEBOYGAN LAKESH 0400   72     300/ 11/ 12 1014.0R
PORT WASHINGTON  0440   70     280/  6/  9 1014.9R
ATWATER BUOY     0400   72 68  270/  8/ 10 1015.8R
MILWAUKEE LAKESH 0400   74     290/  7/  9   N/A
KENOSHA   LAKESH 0400   72     280/  9/ 13 1014.2R
$$

TC  - TEMPERATURE IN CELSIUS
VSB - VISIBILITY IN STATUTE MILES
WCI - WIND CHILL INDEX
HX  - HEAT INDEX




USA.gov is the U.S. government's official web portal to all federal, state and local government web resources and services.